Location: Andrest
(43.3200°N, 0.0641°E)
Time: 20:37:10
(UTC+00:00)

Okean O Rocket - Pass Details

Date: 01 December 2020
Orbit: 622 x 645 km, 98.2° (Epoch: 20 January)

Event Time Altitude Azimuth Distance (km) Brightness Sun altitude
Rises 17:55:25 0° 181° (S) 2,895 5.2 -16.0°
Reaches altitude 10° 17:57:40 10° 188° (S) 1,996 4.5 -16.4°
Maximum altitude 18:01:50 44° 261° (W) 873 2.8 -17.1°
Drops below altitude 10° 18:06:03 10° 334° (NNW) 2,023 4.3 -17.8°
Sets 18:08:21 0° 341° (NNW) 2,940 5.1 -18.3°
